Wetterdaten Herbst 2003

Datum T max T min Regen
01.09.2003 19.9 °C 10.7 °C 0 mm
02.09.2003 21.4 °C 10.6 °C 0 mm
03.09.2003 24.8 °C 7.9 °C 0 mm
04.09.2003 28.7 °C 8.1 °C 0 mm
05.09.2003 30.6 °C 10.7 °C 0 mm
06.09.2003 26.7 °C 15.5 °C 1.1 mm
07.09.2003 25.3 °C 14.5 °C 43.9 mm
08.09.2003 22.3 °C 14.5 °C 2.5 mm
09.09.2003 25 °C 12.4 °C 0 mm
10.09.2003 21.8 °C 13.5 °C 0 mm
11.09.2003 19 °C 11.4 °C 9.4 mm
12.09.2003 19.2 °C 12.9 °C 0 mm
13.09.2003 23.6 °C 10.3 °C 0 mm
14.09.2003 24 °C 8.5 °C 0 mm
15.09.2003 28.6 °C 10.5 °C 0 mm
16.09.2003 27.9 °C 9.4 °C 0 mm
17.09.2003 31 °C 10.4 °C 0 mm
18.09.2003 31.5 °C 12 °C 0 mm
19.09.2003 33.6 °C 13 °C 0 mm
20.09.2003 35.3 °C 13.8 °C 0 mm
21.09.2003 32.6 °C 15.1 °C 0 mm
22.09.2003 32.9 °C 13.6 °C 0 mm
23.09.2003 21.9 °C 10.7 °C 6.1 mm
24.09.2003 20.3 °C 8 °C 0 mm
25.09.2003 25 °C 6.5 °C 0 mm
26.09.2003 28.4 °C 8.5 °C 0 mm
27.09.2003 25.4 °C 12.1 °C 0 mm
28.09.2003 20.2 °C 12.8 °C 4.7 mm
29.09.2003 16.8 °C 9.6 °C 1.8 mm
30.09.2003 22.9 °C 6.1 °C 0 mm
01.10.2003 16.2 °C 8.6 °C 1.1 mm
02.10.2003 26.1 °C 12.3 °C 0.4 mm
03.10.2003 25.2 °C 15.7 °C 15.5 mm
04.10.2003 16.4 °C 11.7 °C 11.2 mm
05.10.2003 11.7 °C 7.7 °C 8.6 mm
06.10.2003 13.9 °C 5.6 °C 0 mm
07.10.2003 10.6 °C 4.1 °C 24.5 mm
08.10.2003 12.2 °C 7.9 °C 6.1 mm
09.10.2003 13.4 °C 9.6 °C 4.7 mm
10.10.2003 15 °C 12.8 °C 0 mm
11.10.2003 18.9 °C 12.4 °C 0 mm
12.10.2003 20.5 °C 8.6 °C 0 mm
13.10.2003 19.3 °C 5.2 °C 0 mm
14.10.2003 16.9 °C 5.5 °C 0 mm
15.10.2003 16.4 °C 2.3 °C 0 mm
16.10.2003 15.9 °C 2.9 °C 0 mm
17.10.2003 16 °C 1.8 °C 0 mm
18.10.2003 16.6 °C 0.6 °C 0 mm
19.10.2003 16.4 °C 0.9 °C 0 mm
20.10.2003 7.3 °C 5.2 °C 5.4 mm
21.10.2003 5.8 °C 2.8 °C 8.3 mm
22.10.2003 9.3 °C 0.7 °C 0 mm
23.10.2003 5.4 °C 0.9 °C 0 mm
24.10.2003 9.2 °C -2.1 °C 0 mm
25.10.2003 8.6 °C -0.5 °C 0 mm
26.10.2003 9.8 °C 1 °C 0 mm
27.10.2003 12.8 °C -1.5 °C 0 mm
28.10.2003 15.2 °C -1.8 °C 0 mm
01.11.2003 15.1 °C 7.5 °C 5 mm
02.11.2003 13.7 °C 5.8 °C 0 mm
03.11.2003 16.4 °C 10.5 °C 0 mm
04.11.2003 18 °C 6.5 °C 0 mm
05.11.2003 18.8 °C 3.7 °C 0 mm
06.11.2003 16.7 °C 3.3 °C 0 mm
07.11.2003 13 °C 3 °C 0 mm
08.11.2003 11.4 °C 2 °C 0 mm
09.11.2003 17.5 °C 1.6 °C 0 mm
10.11.2003 15.3 °C 2 °C 0 mm
11.11.2003 5.6 °C 3.9 °C 0 mm
12.11.2003 5 °C 3.3 °C 0 mm
13.11.2003 8.8 °C 4.3 °C 4.3 mm
14.11.2003 10.6 °C 1.6 °C 0.4 mm
15.11.2003 14 °C 4.9 °C 0.4 mm
16.11.2003 10.6 °C 4.8 °C 8.3 mm
17.11.2003 8.1 °C 4.5 °C 2.5 mm
18.11.2003 9.9 °C 4.6 °C 2.5 mm
19.11.2003 11.8 °C 9.2 °C 0 mm
20.11.2003 15.7 °C 6.1 °C 0.4 mm
21.11.2003 16.9 °C 4.7 °C 0 mm
22.11.2003 15.6 °C 6 °C 0 mm
23.11.2003 11.6 °C 6.2 °C 0 mm
24.11.2003 13.8 °C 7.6 °C 0 mm
25.11.2003 13.1 °C 7.6 °C 0.7 mm
26.11.2003 14.4 °C 6 °C 0 mm
27.11.2003 7 °C 4 °C 0.7 mm
28.11.2003 7.3 °C 4.3 °C 20.5 mm
29.11.2003 5 °C 3.4 °C 1.1 mm
30.11.2003 7.4 °C 1.4 °C 0.4 mm
*) Messwert für diesen Zeitpunkt noch nicht verfügbar
 Hinweis zur Datenqualität
∅ Temperatur

11.2 °C

Abweichung vom Mittel

+0.9 °C

Niederschlag

202.3 mm

Abweichung vom Mittel

132 %

35.3 °C

Lufttemperatur
20.09.2003

1029 hPa

Luftdruck
04.11.2003

0 km/h

Windböen
01.11.2003

202.32 mm

Niederschlag
 

-2.1 °C

Lufttemperatur
24.10.2003

*) °C

Bodentemperatur 5cm
01.01.1970

982 hPa

Luftdruck
01.11.2003
*) Messwert für diesen Zeitpunkt noch nicht verfügbar
 Hinweis zur Datenqualität